Kankakee, IL

5:05 AM CDT on October 20, 2017 (GMT -0500)
Greater Kankakee

Weather History for KIKK - November, 2011

Change the Weather History Date:

Monday, November 21, 2011

  Actual Average Record
Temperature  
Mean Temperature 40 °F -  
Max Temperature 46 °F 46 °F 65 °F (1992)
Min Temperature 33 °F 28 °F 5 °F (2014)
Degree Days  
Heating Degree Days 26    
Moisture  
Dew Point 35 °F    
Average Humidity 83    
Maximum Humidity 93    
Minimum Humidity 71    
Precipitation  
Precipitation 0.00 in - - ()
Sea Level Pressure  
Sea Level Pressure 30.25 in    
Wind  
Wind Speed 10 mph (NE)    
Max Wind Speed 16 mph    
Max Gust Speed 17 mph    
Visibility 10 miles    
Events      
Averages and records for this station are not official NWS values.
T = Trace of Precipitation, MM = Missing Value Source: NWS Daily Summary

Daily Weather History Graph

Daily Weather History Graph

Search for Another Location

Airport or City:

Trip Planner

Search our weather history database for the weather conditions in past years. The results will help you decide how hot, cold, wet, or windy it might be!

Date:

Astronomy

Nov. 21, 2011 Rise Set
Actual Time 6:45 AM CST 4:28 PM CST
Civil Twilight 6:15 AM CST 4:58 PM CST
Nautical Twilight 5:42 AM CST 5:31 PM CST
Astronomical Twilight 5:09 AM CST 6:04 PM CST
Moon 2:22 AM CST (11/21) 1:52 PM CST (11/21)
Length of Visible Light 10h 42m
Length of Day
9h 42m
Waning Crescent, 17% of the Moon is Illuminated
Nov 21
Waning Crescent
Nov 25
New
Dec 2
First Quarter
Dec 10
Full
Dec 17
Last Quarter

Hourly Weather History & Observations

Time (CST) Temp. Windchill Dew Point Humidity Pressure Visibility Wind Dir Wind Speed Gust Speed Precip Events Conditions
12:15 AM 41.0 °F 34.7 °F 33.8 °F 76% 30.27 in 10.0 mi NNE 10.4 mph - N/A   Overcast
12:35 AM 41.0 °F 34.7 °F 33.8 °F 76% 30.27 in 10.0 mi NE 10.4 mph - N/A   Overcast
12:55 AM 39.2 °F 33.0 °F 33.8 °F 81% 30.27 in 10.0 mi ENE 9.2 mph - N/A   Overcast
1:15 AM 39.2 °F 32.5 °F 33.8 °F 81% 30.26 in 10.0 mi ENE 10.4 mph - N/A   Overcast
1:35 AM 39.2 °F 33.0 °F 33.8 °F 81% 30.27 in 10.0 mi NNE 9.2 mph - N/A   Overcast
1:55 AM 37.4 °F 31.4 °F 33.8 °F 87% 30.27 in 10.0 mi NNE 8.1 mph - N/A   Overcast
2:15 AM 37.4 °F 30.8 °F 33.8 °F 87% 30.27 in 10.0 mi NNE 9.2 mph - N/A   Overcast
2:35 AM 37.4 °F 29.8 °F 33.8 °F 87% 30.26 in 10.0 mi NE 11.5 mph - N/A   Overcast
2:55 AM 37.4 °F 30.8 °F 33.8 °F 87% 30.24 in 10.0 mi ENE 9.2 mph - N/A   Overcast
3:15 AM 37.4 °F 29.8 °F 33.8 °F 87% 30.26 in 10.0 mi NE 11.5 mph - N/A   Overcast
3:35 AM 37.4 °F 31.4 °F 33.8 °F 87% 30.26 in 10.0 mi NE 8.1 mph - N/A   Overcast
3:55 AM 37.4 °F 30.3 °F 33.8 °F 87% 30.26 in 10.0 mi ENE 10.4 mph - N/A   Overcast
4:15 AM 37.4 °F 31.4 °F 33.8 °F 87% 30.26 in 10.0 mi NE 8.1 mph - N/A   Overcast
4:35 AM 35.6 °F 31.7 °F 33.8 °F 93% 30.27 in 10.0 mi NNE 4.6 mph - N/A   Scattered Clouds
4:55 AM 35.6 °F 30.7 °F 32.0 °F 87% 30.27 in 10.0 mi NNE 5.8 mph - N/A   Clear
5:15 AM 35.6 °F 30.7 °F 32.0 °F 87% 30.27 in 10.0 mi NE 5.8 mph - N/A   Clear
5:35 AM 33.8 °F 27.0 °F 32.0 °F 93% 30.28 in 10.0 mi NNE 8.1 mph - N/A   Clear
5:55 AM 33.8 °F 26.4 °F 32.0 °F 93% 30.27 in 10.0 mi NE 9.2 mph - N/A   Clear
6:15 AM 33.8 °F 26.4 °F 32.0 °F 93% 30.28 in 10.0 mi NNE 9.2 mph - N/A   Clear
6:35 AM 33.8 °F 26.4 °F 32.0 °F 93% 30.28 in 10.0 mi NNE 9.2 mph - N/A   Clear
6:55 AM 33.8 °F 26.4 °F 32.0 °F 93% 30.29 in 10.0 mi NE 9.2 mph - N/A   Clear
7:15 AM 33.8 °F 26.4 °F 32.0 °F 93% 30.29 in 10.0 mi NE 9.2 mph - N/A   Clear
7:35 AM 33.8 °F 26.4 °F 32.0 °F 93% 30.28 in 10.0 mi NE 9.2 mph - N/A   Clear
7:55 AM 35.6 °F 28.0 °F 32.0 °F 87% 30.28 in 10.0 mi NE 10.4 mph - N/A   Clear
8:15 AM 37.4 °F 29.8 °F 33.8 °F 87% 30.28 in 10.0 mi ENE 11.5 mph - N/A   Clear
8:35 AM 39.2 °F 32.5 °F 33.8 °F 81% 30.29 in 10.0 mi ENE 10.4 mph - N/A   Clear
8:55 AM 41.0 °F 35.2 °F 35.6 °F 81% 30.29 in 10.0 mi ENE 9.2 mph - N/A   Clear
9:15 AM 41.0 °F 35.2 °F 35.6 °F 81% 30.30 in 10.0 mi NE 9.2 mph - N/A   Clear
9:35 AM 42.8 °F 36.2 °F 35.6 °F 76% 30.30 in 10.0 mi NE 12.7 mph - N/A   Clear
9:55 AM 42.8 °F 36.6 °F 35.6 °F 76% 30.29 in 10.0 mi NE 11.5 mph - N/A   Clear
10:15 AM 44.6 °F 38.1 °F 35.6 °F 71% 30.28 in 10.0 mi NE 13.8 mph - N/A   Clear
10:35 AM 44.6 °F 38.4 °F 37.4 °F 76% 30.28 in 10.0 mi NE 12.7 mph - N/A   Clear
10:55 AM 44.6 °F 39.2 °F 37.4 °F 76% 30.27 in 10.0 mi NE 10.4 mph - N/A   Clear
11:15 AM 44.6 °F 38.4 °F 37.4 °F 76% 30.26 in 10.0 mi NE 12.7 mph - N/A   Clear
11:35 AM 46.4 °F 39.8 °F 37.4 °F 71% 30.24 in 10.0 mi NE 16.1 mph - N/A   Clear
11:55 AM 44.6 °F 37.8 °F 37.4 °F 76% 30.23 in 10.0 mi NE 15.0 mph - N/A   Clear
12:15 PM 44.6 °F 38.8 °F 37.4 °F 76% 30.23 in 10.0 mi NE 11.5 mph - N/A   Clear
12:35 PM 46.4 °F 41.5 °F 37.4 °F 71% 30.23 in 10.0 mi ENE 10.4 mph - N/A   Clear
12:55 PM 44.6 °F 38.4 °F 37.4 °F 76% 30.23 in 10.0 mi NE 12.7 mph - N/A   Clear
1:15 PM 44.6 °F 38.1 °F 37.4 °F 76% 30.22 in 10.0 mi ENE 13.8 mph - N/A   Clear
1:35 PM 44.6 °F 37.8 °F 37.4 °F 76% 30.21 in 10.0 mi ENE 15.0 mph - N/A   Clear
1:55 PM 44.6 °F 38.4 °F 37.4 °F 76% 30.21 in 10.0 mi NE 12.7 mph 17.3 mph N/A   Clear
2:15 PM 44.6 °F 38.4 °F 37.4 °F 76% 30.21 in 10.0 mi East 12.7 mph - N/A   Clear
2:35 PM 44.6 °F 37.8 °F 37.4 °F 76% 30.21 in 10.0 mi ENE 15.0 mph - N/A   Clear
2:55 PM 42.8 °F 36.6 °F 37.4 °F 81% 30.20 in 10.0 mi ENE 11.5 mph - N/A   Scattered Clouds
3:15 PM 42.8 °F 36.2 °F 37.4 °F 81% 30.20 in 10.0 mi ENE 12.7 mph - N/A   Scattered Clouds
3:35 PM 42.8 °F 36.2 °F 37.4 °F 81% 30.21 in 10.0 mi ENE 12.7 mph - N/A   Mostly Cloudy
3:55 PM 42.8 °F 36.6 °F 37.4 °F 81% 30.20 in 10.0 mi NE 11.5 mph - N/A   Mostly Cloudy
4:15 PM 41.0 °F 34.3 °F 37.4 °F 87% 30.21 in 10.0 mi ENE 11.5 mph - N/A   Overcast
4:35 PM 41.0 °F 34.7 °F 35.6 °F 81% 30.20 in 10.0 mi NE 10.4 mph - N/A   Mostly Cloudy
4:55 PM 41.0 °F 34.3 °F 37.4 °F 87% 30.20 in 10.0 mi NE 11.5 mph - N/A   Mostly Cloudy
5:15 PM 41.0 °F 33.9 °F 37.4 °F 87% 30.20 in 10.0 mi ENE 12.7 mph - N/A   Overcast
5:35 PM 41.0 °F 33.9 °F 37.4 °F 87% 30.21 in 10.0 mi NE 12.7 mph - N/A   Overcast
5:55 PM 41.0 °F 33.9 °F 37.4 °F 87% 30.21 in 10.0 mi NE 12.7 mph 16.1 mph N/A   Overcast
6:15 PM 41.0 °F 33.5 °F 37.4 °F 87% 30.21 in 10.0 mi NE 13.8 mph - N/A   Overcast
6:35 PM 41.0 °F 33.9 °F 35.6 °F 81% 30.21 in 10.0 mi NE 12.7 mph - N/A   Overcast
6:55 PM 41.0 °F 33.1 °F 35.6 °F 81% 30.21 in 10.0 mi ENE 15.0 mph - N/A   Overcast
7:15 PM 41.0 °F 33.1 °F 35.6 °F 81% 30.20 in 10.0 mi NE 15.0 mph - N/A   Overcast
7:35 PM 41.0 °F 32.8 °F 35.6 °F 81% 30.20 in 10.0 mi ENE 16.1 mph - N/A   Overcast
7:55 PM 41.0 °F 33.9 °F 35.6 °F 81% 30.19 in 10.0 mi ENE 12.7 mph - N/A   Overcast
8:15 PM 41.0 °F 33.9 °F 35.6 °F 81% 30.17 in 10.0 mi ENE 12.7 mph - N/A   Overcast
8:35 PM 41.0 °F 34.3 °F 35.6 °F 81% 30.17 in 10.0 mi ENE 11.5 mph - N/A   Overcast
8:55 PM 41.0 °F 35.2 °F 35.6 °F 81% 30.20 in 10.0 mi ENE 9.2 mph - N/A   Overcast
9:15 PM 41.0 °F 34.7 °F 35.6 °F 81% 30.18 in 10.0 mi ENE 10.4 mph - N/A   Overcast
9:35 PM 41.0 °F 34.7 °F 35.6 °F 81% 30.18 in 10.0 mi ENE 10.4 mph - N/A   Overcast
9:55 PM 41.0 °F 34.7 °F 35.6 °F 81% 30.16 in 10.0 mi ENE 10.4 mph - N/A   Overcast
10:15 PM 41.0 °F 35.8 °F 35.6 °F 81% 30.17 in 10.0 mi ENE 8.1 mph - N/A   Overcast
10:35 PM 41.0 °F 35.8 °F 35.6 °F 81% 30.18 in 10.0 mi ENE 8.1 mph - N/A   Overcast
10:55 PM 41.0 °F 37.1 °F 35.6 °F 81% 30.18 in 10.0 mi ENE 5.8 mph - N/A   Overcast
11:15 PM 41.0 °F 37.1 °F 35.6 °F 81% 30.18 in 10.0 mi NE 5.8 mph - N/A   Overcast
11:35 PM 41.0 °F 37.1 °F 37.4 °F 87% 30.18 in 10.0 mi NE 5.8 mph - N/A   Overcast
11:55 PM 41.0 °F 37.1 °F 37.4 °F 87% 30.18 in 10.0 mi ENE 5.8 mph - N/A   Overcast